TimeEST,TemperatureF,Dew PointF,Humidity,Sea Level PressureIn,VisibilityMPH,Wind Direction,Wind SpeedMPH,Gust SpeedMPH,PrecipitationIn,Events,Conditions,WindDirDegrees,DateUTC
12:58 AM,42.1,39.0,89,30.08,9.0,Calm,Calm,-,N/A,,Clear,0,2013-02-15 05:58:00
1:58 AM,39.9,37.0,89,30.06,10.0,North,5.8,-,N/A,,Clear,360,2013-02-15 06:58:00
2:58 AM,43.0,37.9,82,30.06,10.0,North,6.9,-,N/A,,Clear,350,2013-02-15 07:58:00
3:58 AM,43.0,39.0,86,30.07,10.0,NNW,6.9,-,N/A,,Clear,340,2013-02-15 08:58:00
4:58 AM,41.0,37.9,89,30.06,10.0,North,4.6,-,N/A,,Clear,360,2013-02-15 09:58:00
5:58 AM,39.0,37.9,96,30.06,9.0,North,5.8,-,N/A,,Clear,360,2013-02-15 10:58:00
6:58 AM,41.0,37.9,89,30.07,10.0,North,6.9,-,N/A,,Clear,350,2013-02-15 11:58:00
7:58 AM,44.1,39.9,85,30.08,9.0,North,4.6,-,N/A,,Clear,360,2013-02-15 12:58:00
8:58 AM,48.9,41.0,74,30.10,9.0,Calm,Calm,-,N/A,,Clear,0,2013-02-15 13:58:00
9:58 AM,52.0,41.0,66,30.10,10.0,NE,5.8,-,N/A,,Clear,40,2013-02-15 14:58:00
10:58 AM,55.0,37.9,53,30.09,10.0,NNE,8.1,-,N/A,,Clear,20,2013-02-15 15:58:00
11:58 AM,55.9,35.1,45,30.07,10.0,ENE,8.1,-,N/A,,Clear,70,2013-02-15 16:58:00
12:58 PM,55.9,37.9,51,30.04,10.0,SE,5.8,-,N/A,,Clear,130,2013-02-15 17:58:00
1:58 PM,55.9,34.0,44,30.03,10.0,East,6.9,-,N/A,,Clear,90,2013-02-15 18:58:00
2:58 PM,55.9,37.9,51,30.00,10.0,East,6.9,-,N/A,,Clear,100,2013-02-15 19:58:00
3:58 PM,55.0,37.0,51,29.99,10.0,Variable,6.9,-,N/A,,Clear,0,2013-02-15 20:58:00
4:58 PM,54.0,37.0,53,29.99,10.0,SE,5.8,-,N/A,,Clear,130,2013-02-15 21:58:00
5:58 PM,50.0,37.9,63,29.98,10.0,SSE,3.5,-,N/A,,Clear,150,2013-02-15 22:58:00
6:58 PM,46.0,37.9,73,29.98,10.0,Calm,Calm,-,N/A,,Clear,0,2013-02-15 23:58:00
7:58 PM,43.0,37.9,82,29.99,10.0,Calm,Calm,-,N/A,,Clear,0,2013-02-16 00:58:00
8:58 PM,42.1,37.9,85,29.99,10.0,Calm,Calm,-,N/A,,Clear,0,2013-02-16 01:58:00
9:58 PM,41.0,37.9,89,29.99,10.0,Calm,Calm,-,N/A,,Clear,0,2013-02-16 02:58:00
10:58 PM,39.9,37.0,89,29.98,5.0,Calm,Calm,-,N/A,,Clear,0,2013-02-16 03:58:00
11:58 PM,39.0,37.9,96,29.97,6.0,Calm,Calm,-,N/A,,Clear,0,2013-02-16 04:58:00